DG5TKE Weather Reports


time (UTC)temp
C
wind
direction
speed
KPH
gust
KPH
rain 1hr
cm
rain 24hr
cm
rain mn
cm
humidity
%
barometer
mb
20260508000004 7 0 0.0 0.0 0.00 3.96 0.00 95 1016.2
20260507235006 7 0 0.0 0.0 0.00 3.96 0.00 95 1016.3
20260507234008 7 0 0.0 0.0 0.00 3.96 0.00 96 1016.2
20260507233006 7 0 0.0 0.0 0.00 3.96 0.00 96 1016.3
20260507232003 7 0 0.0 0.0 0.00 3.96 0.00 96 1016.2
20260507231006 7 0 0.0 0.0 0.00 3.96 0.00 96 1016.2
20260507230003 7 0 0.0 0.0 0.00 3.96 0.00 96 1016.2
20260507225007 7 0 0.0 0.0 0.00 3.96 0.00 96 1016.1
20260507224006 7 0 0.0 0.0 0.00 3.96 0.00 96 1016.1
20260507223006 7 0 0.0 0.0 0.00 3.96 0.00 96 1016.1
20260507222006 7 325 1.6 3.2 0.00 3.96 0.00 95 1016.1
20260507221216 7 324 1.6 4.8 0.00 3.96 0.00 95 1016.1
20260507220004 7 0 0.0 3.2 0.00 3.99 0.00 95 1016.0
20260507215006 7 0 0.0 0.0 0.00 3.99 3.99 95 1016.0
20260507214003 7 0 0.0 0.0 0.00 3.99 3.99 95 1016.0
20260507213003 7 336 0.0 1.6 0.00 3.99 3.99 95 1015.8
20260507212003 7 336 0.0 3.2 0.00 3.99 3.99 95 1015.9
20260507211003 7 0 0.0 3.2 0.00 3.99 3.99 95 1016.0
20260507210218 7 0 0.0 0.0 0.00 3.99 3.99 95 1016.0
20260507205003 7 303 1.6 3.2 0.00 3.99 3.99 95 1016.0
20260507204003 7 299 1.6 4.8 0.00 3.99 3.99 95 1015.9
20260507203003 7 0 0.0 3.2 0.00 3.99 3.99 95 1015.8
20260507202003 7 0 0.0 0.0 0.00 3.99 3.99 95 1015.7
20260507201003 7 0 0.0 0.0 0.00 3.99 3.99 95 1015.6
20260507200003 7 22 1.6 3.2 0.03 3.99 3.99 95 1015.4
20260507195003 7 27 1.6 4.8 0.03 3.99 3.99 95 1015.4
20260507194003 7 29 3.2 8.0 0.03 3.99 3.99 95 1015.4
20260507193003 7 32 1.6 6.4 0.03 3.99 3.99 95 1015.3
20260507192003 7 12 1.6 3.2 0.03 3.99 3.99 95 1015.2
20260507191003 7 13 1.6 4.8 0.03 3.99 3.99 95 1015.0
20260507190004 7 15 3.2 9.7 0.00 3.96 3.96 95 1014.8
20260507185003 7 18 3.2 9.7 0.00 3.96 3.96 95 1014.7
20260507184003 7 12 3.2 8.0 0.00 3.96 3.96 95 1014.7
20260507183003 7 6 3.2 9.7 0.00 3.96 3.96 95 1014.6
20260507182003 8 356 1.6 6.4 0.00 3.96 3.96 95 1014.6
20260507181003 8 21 3.2 6.4 0.00 3.96 3.96 95 1014.4
20260507180003 8 42 1.6 4.8 0.03 3.96 3.96 95 1014.3
20260507175006 8 76 1.6 4.8 0.05 3.96 3.96 95 1014.3
20260507174003 8 31 0.0 3.2 0.05 3.96 3.96 95 1014.2
20260507173003 8 11 1.6 4.8 0.05 3.96 3.96 96 1014.1
20260507172003 8 15 1.6 3.2 0.05 3.96 3.96 96 1014.0
20260507171003 8 34 3.2 6.4 0.08 3.96 3.96 96 1013.9
20260507170003 8 46 1.6 4.8 0.05 3.94 3.94 96 1013.9
20260507165003 8 27 1.6 4.8 0.05 3.91 3.91 96 1013.8
20260507164006 8 45 1.6 3.2 0.05 3.91 3.91 96 1013.8
20260507163003 8 24 1.6 6.4 0.05 3.91 3.91 96 1013.7
20260507162216 8 31 1.6 6.4 0.05 3.91 3.91 96 1013.6
20260507161003 8 31 1.6 6.4 0.05 3.89 3.89 96 1013.6
20260507160003 8 24 1.6 4.8 0.05 3.89 3.89 96 1013.5
20260507155003 8 41 3.2 4.8 0.05 3.86 3.86 96 1013.5
20260507154003 7 44 3.2 8.0 0.08 3.86 3.86 96 1013.4
20260507153003 8 48 1.6 8.0 0.08 3.84 3.84 96 1013.4
20260507152003 7 347 1.6 3.2 0.13 3.84 3.84 96 1013.3
20260507151003 7 21 1.6 8.0 0.15 3.84 3.84 96 1013.3
20260507150003 7 1 1.6 6.4 0.15 3.81 3.81 96 1013.1
20260507145006 7 0 0.0 0.0 0.15 3.81 3.81 96 1013.1
20260507144003 7 30 0.0 3.2 0.15 3.78 3.78 96 1013.0
20260507143003 7 54 1.6 4.8 0.15 3.76 3.76 96 1013.0
20260507142003 7 33 1.6 4.8 0.15 3.71 3.71 96 1012.9
20260507141003 7 37 1.6 6.4 0.15 3.71 3.71 96 1012.9
20260507140217 7 33 1.6 6.4 0.15 3.68 3.68 96 1012.8
20260507135003 7 31 3.2 6.4 0.15 3.63 3.63 96 1012.8
20260507134217 7 13 3.2 6.4 0.15 3.63 3.63 95 1012.8
20260507133217 7 23 1.6 8.0 0.18 3.61 3.61 96 1012.7
20260507132217 7 358 3.2 9.7 0.18 3.58 3.58 96 1012.6
20260507131221 7 18 3.2 11.3 0.20 3.56 3.56 96 1012.5
20260507130004 7 24 3.2 8.0 0.18 3.53 3.53 96 1012.4
20260507125003 7 16 3.2 8.0 0.15 3.48 3.48 95 1012.3
20260507124003 7 11 3.2 6.4 0.18 3.45 3.45 95 1012.2
20260507123003 7 22 3.2 9.7 0.15 3.43 3.43 95 1012.2
20260507122006 7 20 1.6 6.4 0.15 3.38 3.38 95 1012.0
20260507121003 7 7 1.6 4.8 0.18 3.35 3.35 95 1011.9
20260507120004 7 13 4.8 11.3 0.20 3.33 3.33 95 1011.8
20260507115217 7 15 3.2 11.3 0.20 3.33 3.33 95 1011.8
20260507114216 7 10 3.2 8.0 0.20 3.28 3.28 95 1011.7
20260507113003 7 7 3.2 8.0 0.23 3.25 3.25 95 1011.5
20260507112003 7 14 3.2 8.0 0.23 3.23 3.23 96 1011.5
20260507111003 7 19 1.6 6.4 0.20 3.17 3.17 96 1011.4
20260507110003 7 35 1.6 4.8 0.20 3.15 3.15 96 1011.4
20260507105003 7 38 3.2 8.0 0.18 3.10 3.10 96 1011.3
20260507104220 7 25 3.2 8.0 0.18 3.07 3.07 96 1011.2
20260507103003 7 36 3.2 9.7 0.18 3.05 3.05 95 1011.0
20260507102003 7 33 3.2 6.4 0.18 3.00 3.00 95 1011.0
20260507101003 7 40 1.6 9.7 0.20 2.97 2.97 95 1010.9
20260507100003 7 25 3.2 4.8 0.20 2.95 2.95 95 1010.9
20260507095218 7 20 3.2 8.0 0.20 2.92 2.92 95 1010.8
20260507094218 7 1 4.8 14.5 0.23 2.90 2.90 95 1010.7
20260507093003 7 17 4.8 11.3 0.23 2.87 2.87 95 1010.5
20260507092003 7 19 4.8 14.5 0.23 2.82 2.82 95 1010.3
20260507091006 8 28 4.8 11.3 0.23 2.77 2.77 95 1010.0
20260507090004 8 36 4.8 9.7 0.20 2.74 2.74 95 1010.0
20260507085003 8 22 4.8 12.9 0.20 2.69 2.69 95 1009.7
20260507084003 8 21 6.4 16.1 0.20 2.69 2.69 95 1009.5
20260507083004 8 19 3.2 16.1 0.20 2.64 2.64 95 1009.3
20260507082003 8 2 3.2 8.0 0.18 2.59 2.59 95 1009.2
20260507081003 8 21 3.2 9.7 0.18 2.57 2.57 95 1009.1
20260507080003 8 17 3.2 12.9 0.20 2.54 2.54 95 1008.9
20260507075003 8 11 4.8 11.3 0.20 2.49 2.49 95 1008.7
20260507074217 8 8 3.2 14.5 0.23 2.49 2.49 95 1008.6
20260507073003 8 10 1.6 12.9 0.23 2.44 2.44 95 1008.4
20260507072003 8 343 1.6 8.0 0.23 2.41 2.41 95 1008.2
20260507071003 8 341 1.6 6.4 0.25 2.39 2.39 95 1008.1
20260507070217 8 343 1.6 6.4 0.23 2.34 2.36 95 1007.9
20260507065006 8 10 1.6 6.4 0.28 2.31 2.31 95 1007.9
20260507064003 8 27 1.6 6.4 0.28 2.26 2.26 95 1007.7
20260507063217 9 5 1.6 4.8 0.28 2.21 2.21 95 1007.6
20260507062003 9 12 3.2 12.9 0.30 2.18 2.18 95 1007.4
20260507061003 9 16 3.2 11.3 0.33 2.11 2.11 95 1007.3
20260507060221 9 14 1.6 8.0 0.36 2.11 2.11 95 1007.1
20260507055003 10 13 0.0 4.8 0.43 2.03 2.03 95 1007.0
20260507054003 10 306 1.6 11.3 0.51 1.98 1.98 95 1006.9
20260507053004 10 302 3.2 6.4 0.53 1.93 1.93 95 1006.8
20260507052003 10 293 4.8 9.7 0.53 1.88 1.88 95 1006.7
20260507051003 10 296 4.8 11.3 0.53 1.80 1.80 95 1006.6
20260507050003 10 295 6.4 12.9 0.53 1.75 1.75 95 1006.4
20260507045006 10 288 4.8 12.9 0.51 1.60 1.60 95 1006.3
20260507044003 10 290 4.8 9.7 0.58 1.47 1.47 95 1006.2
20260507043218 10 298 4.8 16.1 0.71 1.42 1.42 95 1006.1
20260507042003 10 299 4.8 11.3 0.86 1.35 1.35 95 1005.9
20260507041003 10 296 4.8 11.3 0.99 1.27 1.27 95 1005.7
20260507040006 10 282 3.2 11.3 1.09 1.19 1.19 94 1005.6
20260507035218 10 302 4.8 9.7 1.07 1.12 1.12 94 1005.4
20260507034003 10 272 9.7 19.3 0.86 0.89 0.89 94 1005.3
20260507033003 10 267 6.4 22.5 0.61 0.66 0.66 94 1005.2
20260507032003 11 281 4.8 17.7 0.43 0.48 0.48 94 1005.2
20260507031003 11 277 4.8 14.5 0.23 0.28 0.28 94 1005.2
20260507030003 11 34 4.8 11.3 0.05 0.10 0.10 94 1005.1
20260507025221 11 32 4.8 11.3 0.03 0.05 0.05 94 1005.0
20260507024003 11 42 4.8 9.7 0.00 0.05 0.05 94 1004.9
20260507023003 12 42 4.8 9.7 0.00 0.05 0.05 94 1004.9
20260507022003 12 33 3.2 8.0 0.00 0.05 0.05 94 1005.0
20260507021003 12 58 3.2 8.0 0.00 0.05 0.05 94 1005.0
20260507020003 12 63 1.6 8.0 0.00 0.05 0.05 94 1005.0
20260507015003 12 68 1.6 4.8 0.00 0.05 0.05 94 1004.9
20260507014003 12 43 3.2 6.4 0.00 0.05 0.05 94 1005.0
20260507013003 12 33 1.6 8.0 0.00 0.05 0.05 94 1004.9
20260507012217 12 26 0.0 6.4 0.00 0.05 0.05 94 1004.8
20260507011003 12 0 0.0 0.0 0.00 0.05 0.05 94 1004.9
20260507010003 12 14 1.6 3.2 0.03 0.05 0.05 93 1004.9
20260507005003 12 16 1.6 6.4 0.03 0.05 0.05 93 1004.8
20260507004003 12 39 1.6 4.8 0.03 0.08 0.05 93 1004.8
20260507003221 12 37 3.2 8.0 0.03 0.08 0.05 93 1004.9
20260507002003 12 31 3.2 8.0 0.03 0.08 0.05 93 1004.8
20260507001216 12 44 3.2 9.7 0.03 0.08 0.05 93 1004.7